Regional Weather Roundup
Issued by NWS Portland, ME

Current Version | Previous Version | Text Only | Print | Product List | Glossary On
Versions: 1 2 3 4 5 6 7 8 9 10 11 12 13 14 15 16 17 18 19 20 21 22 23 24 25 26 27 28 29 30 31 32 33 34 35 36 37 38 39 40 41 42 43 44 45 46 47 48 49 50
000
ASUS41 KGYX 300410
RWRGYX
WEATHER ROUNDUP FOR MAINE AND NEW HAMPSHIRE
NATIONAL WEATHER SERVICE GRAY ME
1200 AM EDT FRI OCT 30 2020

MEZ002-005-006-010-012-015-018-020-021-024-026-027-029-300500-
MAINE

CITY           SKY/WX    TMP DP  RH WIND       PRES   REMARKS
PORTLAND       LGT RAIN  38  35  89 NE17G24   29.82F
SANFORD        LGT RAIN  37  35  92 NE18      29.80S
BAR HARBOR     LGT RAIN  36  31  82 N13       29.86R
WISCASSET      CLOUDY    38  36  92 VRB7      29.85R
ROCKLAND       LGT RAIN  39  35  86 NE18G24   29.83R
FRYEBURG       MIX PCPN  37  34  89 N7        29.83F
LEWISTONAUBURN LGT RAIN  36  32  85 N17G26    29.85R
AUGUSTA        CLOUDY    35  30  82 N12       29.86R
WATERVILLE     CLEAR     35  29  78 N8        29.85R
BANGOR         CLOUDY    36  26  67 N12       29.89R
GREENVILLE       N/A     29  18  63 NE14      29.84R WCI  18
MILLINOCKET    MOCLDY    32  17  54 N10       29.93R
HOULTON        MOCLDY    30  17  58 N8        29.90R
PRESQUE ISLE   MOCLDY    28  21  75 N9        29.93S
FRENCHVILLE    PTCLDY    25  16  68 N15       29.91S WCI  13
CARIBOU        PTCLDY    29  17  61 N9        29.92R
$$

NHZ002-005-008-009-011-012-014-300500-
NEW HAMPSHIRE

CITY           SKY/WX    TMP DP  RH WIND       PRES   REMARKS
PORTSMOUTH     LGT RAIN  39  37  91 N10G22    29.77R FOG
ROCHESTER      LGT RAIN  38  35  89 N12G17    29.79S
NASHUA         RAIN      40  40 100 N8        29.78R
MANCHESTER     LGT RAIN  40  36  86 N14G22    29.77R FOG
CONCORD        LGT RAIN  38  35  89 NE8       29.79S FOG
LACONIA        LGT RAIN  38  36  92 NE12G18   29.80S
PLYMOUTH       LGT RAIN  38  38  97 CALM      29.80S
BERLIN         CLOUDY    34  29  82 N7        29.83S
WHITEFIELD     CLOUDY    34  31  88 N6        29.82F
JAFFREY        LGT RAIN  37  34  89 VRB7      29.74S
KEENE            N/A    N/A N/A N/A MISG        N/A
LEBANON        LGT RAIN  38  35  89 N8        29.82R
MT WASHINGTON  SNOW      18  18 100 N18         N/A  VSB 1/8 WCI   2
$$

VTZ005-007-008-300500-
VERMONT

CITY           SKY/WX    TMP DP  RH WIND       PRES   REMARKS
ST JOHNSBURY     N/A     35  29  78 MISG      29.85R
MONTPELIER     CLOUDY    33  31  92 N6        29.88R
BURLINGTON     CLOUDY    36  26  67 N13       29.88F
$$

MAZ007-012-024-CTZ003-RIZ002-NYZ038-NYZ072-300500-
SOUTHERN NEW ENGLAND AND NY

CITY           SKY/WX    TMP DP  RH WIND       PRES   REMARKS
BOSTON         LGT RAIN  44  42  93 NE25G36   29.73R FOG
WORCESTER      LGT RAIN  39  37  92 NE16G25   29.70R FOG
NANTUCKET      LGT RAIN N/A N/A N/A NE24G38   29.55R
PROVIDENCE     LGT RAIN  47  45  93 NE16G25   29.67R FOG
HARTFORD       LGT RAIN  43  40  89 N13       29.70R FOG
ALBANY         LGT RAIN  37  37 100 N12       29.79S
NEW YORK CITY  LGT RAIN  47  44  90 N15       29.64R FOG
$$

ANZ081-ANZ082-ANZ150-NHZ014-MEZ023>029-300500-
COASTAL MARINE OBSERVATIONS

STATION/POSITION TIME  TEMP    WIND        PRES    WAVE
                       AIR SEA DIR/SP/G            HT/PER
                 (UTC) (F)     (DEG/KT/KT) (MB)    (FT/S)
MOUNT DESERT ROC 0400           10/ 34/ 38 1008.7F
MATINICUS ROCK   0300   42      40/ 25/ 29 1008.7F
ISLE OF SHOALS   0300   44      30/ 29/ 34 1006.6R
JEFFREYS LEDGE   0305      57                N/A     6/ 5
CASHES LEDGE BUO 0350   45 55   40/ 27/ 33 1007.1F   6/ 5
$$

.............KEY..............
   WCI - WIND CHILL
   TC  - TEMPERATURE IN CELSIUS
   VSB - VISIBILITY IN MILES
   HX  - HEAT INDEX
   FAIR- INDICATES FEW OR NO CLOUDS BELOW 12,000 FT, WITH NO
         SIGNIFICANT WEATHER AND/OR OBSTRUCTIONS TO VISIBILITY.





USA.gov is the U.S. government's official web portal to all federal, state and local government web resources and services.